To NAV CANADA Home Page Login to a new session Search on AWWS site Feedback and Comments Disclaimer Vers la page française équivalente Tips FAQ What's new on the site To the Forecasts and Observations / NOTAM section To "File a Flight Plan" website Publications and other links Update of the User's profile FIC Telephone Numbers My Weather Data Folder Route Weather Data Regional Weather Data Local Weather Data To the Forecasts and Observations / NOTAM section
Request Generated 01/17/2017 at 04:51:12 UTC . Weather information available at that time is displayed.

METAR/TAF

FARO/YT    

LWIS CZFA 170400Z AUTO 14014KT 01/M03 A2865=
LWIS CZFA 170300Z AUTO 15012KT 01/M02 A2866=
LWIS CZFA 170200Z AUTO 15012KT 01/M02 A2867=

*** REMARK        : Forecast period has ended; this was the last TAF issued
*** REMARQUE : La période de prévision est échue; ceci était le dernier TAF qui a été émis
TAF CZFA 161743Z 1618/1623 14012G22KT P6SM BKN070 OVC100 TEMPO
1618/1620 5SM -SN BKN050 OVC100
FM162000 14010KT P6SM BKN070 TEMPO 1620/1623 SCT070
RMK NXT FCST WILL BE ISSUED AT 171645Z=
Your time UTC time
Weather data provided by Environment Canada and NAV CANADA